Location: Newark
(45.4422°N, 16.2769°E)
Time: 23:44:55
(UTC+00:00)

Courier 1B - Pass Details

Date: 18 December 2019
Orbit: 962 x 1209 km, 28.3° (Epoch: 21 January)

Event Time Altitude Azimuth Distance (km) Brightness Sun altitude
Rises 18:29:27 0° 236° (SW) 3,733 11.3 -33.4°
Reaches altitude 10° 18:32:56 10° 219° (SW) 2,825 10.3 -34.0°
Enters shadow 18:36:30 18° 187° (S) 2,317 9.5 -34.6°
Maximum altitude 18:37:30 19° 177° (S) 2,298 - -34.8°
Drops below altitude 10° 18:42:14 10° 135° (SE) 2,948 - -35.6°
Sets 18:45:58 0° 119° (ESE) 3,955 - -36.3°
